Retour au catalogue

SL-8 DEB

ActifLEO
NORAD 1479·DEBRIS·🇷🇺 Russia

Lancé Mar 15, 1965 depuis Baikonur Cosmodrome

Loading…

Prochains Passages (prochaines 24 heures)

TLE

FraisSource: Space-Track

Époque: Sep 13, 2026, 13:23 UTC

1  1479U 65020BD  26256.55765601  .00000579  00000-0  13696-2 0  9998
2  1479  56.0351  53.1537 0736867 191.6343 166.6690 12.60063445807506

Suivez SL-8 DEB en temps réel avec AllMySat

Download on the App Store